Regional Weather Roundup
Issued by NWS

Home | Current Version | Previous Version | Graphics & Text | Print | Product List | Glossary On
Versions: 1 2 3 4 5 6 7 8 9 10 11 12 13 14 15 16 17 18 19 20 21 22 23 24 25 26 27 28 29 30 31 32 33 34 35 36 37 38 39 40 41 42 43 44 45 46 47 48 49 50
000
ASUS43 KTOP 171459
RWRKS

WEATHER ROUNDUP FOR KANSAS
NATIONAL WEATHER SERVICE GOODLAND KS
1000 AM CDT THU APR 17 2014

NOTE:  "FAIR" INDICATES FEW OR NO CLOUDS BELOW 12,000 FEET WITH NO
SIGNIFICANT WEATHER AND/OR OBSTRUCTIONS TO VISIBILITY.

KSZ001>006-013>018-027>032-041>047-171600-
NORTHWEST KANSAS

CITY           SKY/WX    TMP DP  RH WIND       PRES   REMARKS
GOODLAND       CLOUDY    32  29  88 SE8       30.26R
HAYS           CLOUDY    36  25  64 NE9       30.31R
HILL CITY      CLOUDY    35  25  66 N7        30.31R
RUSSELL        CLOUDY    36  26  67 N12       30.30R WCI  28
$$

KSZ061>065-074>080-084>089-171600-
SOUTHWEST KANSAS

CITY           SKY/WX    TMP DP  RH WIND       PRES   REMARKS
DODGE CITY     MIX PCPN  32  29  88 NE9       30.28R FOG
ELKHART          N/A     40  34  80 E7          N/A
GARDEN CITY    LGT RAIN  34  31  88 NE8       30.27R FOG
GREAT BEND     CLOUDY    36  25  64 NE14      30.29S WCI  27
LIBERAL        CLOUDY    37  32  81 NE7       30.27R
$$

KSZ066>073-081>083-090>101-171600-
SOUTHEAST KANSAS

CITY           SKY/WX    TMP DP  RH WIND       PRES   REMARKS
CHANUTE        CLOUDY    44  33  65 N9        30.27R
COFFEYVILLE    CLOUDY    47  35  63 N12       30.25R
HUTCHINSON     LGT RAIN  36  29  75 NE5       30.30R
NEWTON         CLOUDY    36  27  69 N7        30.32R
PARSONS        CLOUDY    46  34  62 MISG      30.27R
WICHITA INTL   CLOUDY    40  29  64 NE12      30.28R WCI  33
WICHITA JABRA  CLOUDY    39  29  67 N14       30.28R WCI  31
WINFIELD       CLOUDY    45  32  60 N13       30.27R
$$

KSZ007>012-019>026-033>040-048>060-102>105-171600-
NORTHEAST KANSAS

CITY           SKY/WX    TMP DP  RH WIND       PRES   REMARKS
CONCORDIA      CLOUDY    37  27  67 N12       30.32R WCI  29
EMPORIA        CLOUDY    38  29  70 N13       30.28R WCI  30
LAWRENCE       CLOUDY    40  30  67 N9        30.30S
MANHATTAN      CLOUDY    39  28  64 N8        30.32R
OLATHE IND     CLOUDY    39  30  70 N12       30.28S WCI  32
OLATHE EXE     CLOUDY    40  30  67 N9        30.27R
SALINA         CLOUDY    38  26  62 N12       30.33R WCI  30
TOPEKA BILLARD CLOUDY    40  30  67 N14       30.31R WCI  32
TOPEKA FORBES  CLOUDY    38  28  67 N12       30.29R WCI  30
$$



USA.gov is the U.S. government's official web portal to all federal, state and local government web resources and services.